Time,TemperatureF,DewpointF,PressureIn,WindDirection,WindDirectionDegrees,WindSpeedMPH,WindSpeedGustMPH,Humidity,HourlyPrecipIn,Conditions,Clouds,dailyrainin,SolarRadiationWatts/m^2,SoftwareType,DateUTC
2013-01-27 00:11:00,37.0,20.0,-100.00,ENE,65,4.0,8.0,50,0.00,,,0.00,0.000000,,2013-01-27 08:11:00,
2013-01-27 00:22:00,37.0,20.0,-100.00,ENE,65,4.0,8.0,50,0.00,,,0.00,0.000000,,2013-01-27 08:22:00,
2013-01-27 00:31:00,37.0,20.0,-100.00,ENE,65,4.0,8.0,50,0.00,,,0.00,0.000000,,2013-01-27 08:31:00,
2013-01-27 00:41:00,37.0,20.0,-100.00,ENE,65,4.0,8.0,50,0.00,,,0.00,0.000000,,2013-01-27 08:41:00,
2013-01-27 01:11:00,35.0,23.0,-100.00,ENE,75,2.0,8.0,60,0.00,,,0.00,0.000000,,2013-01-27 09:11:00,
2013-01-27 01:21:00,35.0,23.0,-100.00,ENE,75,2.0,8.0,60,0.00,,,0.00,0.000000,,2013-01-27 09:21:00,
2013-01-27 01:32:00,35.0,23.0,-100.00,ENE,75,2.0,8.0,60,0.00,,,0.00,0.000000,,2013-01-27 09:32:00,
2013-01-27 01:41:00,35.0,23.0,-100.00,ENE,75,2.0,8.0,60,0.00,,,0.00,0.000000,,2013-01-27 09:41:00,
2013-01-27 02:01:00,36.0,24.0,-100.00,NNE,26,3.0,7.0,62,0.00,,,0.00,0.000000,,2013-01-27 10:01:00,
2013-01-27 02:11:00,36.0,24.0,-100.00,NNE,26,3.0,7.0,62,0.00,,,0.00,0.000000,,2013-01-27 10:11:00,
2013-01-27 02:21:00,36.0,24.0,-100.00,NNE,26,3.0,7.0,62,0.00,,,0.00,0.000000,,2013-01-27 10:21:00,
2013-01-27 02:31:00,36.0,24.0,-100.00,NNE,26,3.0,7.0,62,0.00,,,0.00,0.000000,,2013-01-27 10:31:00,
2013-01-27 02:41:00,36.0,24.0,-100.00,NNE,26,3.0,7.0,62,0.00,,,0.00,0.000000,,2013-01-27 10:41:00,
2013-01-27 03:11:00,33.0,24.0,-100.00,West,276,0.0,5.0,70,0.00,,,0.00,0.000000,,2013-01-27 11:11:00,
2013-01-27 03:21:00,33.0,24.0,-100.00,West,276,0.0,5.0,70,0.00,,,0.00,0.000000,,2013-01-27 11:21:00,
2013-01-27 03:32:00,33.0,24.0,-100.00,West,276,0.0,5.0,70,0.00,,,0.00,0.000000,,2013-01-27 11:32:00,
2013-01-27 03:42:00,33.0,24.0,-100.00,West,276,0.0,5.0,70,0.00,,,0.00,0.000000,,2013-01-27 11:42:00,
2013-01-27 04:11:00,35.0,27.0,-100.00,NW,314,7.0,10.0,73,0.00,,,0.00,0.000000,,2013-01-27 12:11:00,
2013-01-27 04:21:00,35.0,27.0,-100.00,NW,314,7.0,10.0,73,0.00,,,0.00,0.000000,,2013-01-27 12:21:00,
2013-01-27 04:32:00,35.0,27.0,-100.00,NW,314,7.0,10.0,73,0.00,,,0.00,0.000000,,2013-01-27 12:32:00,
2013-01-27 04:42:00,35.0,27.0,-100.00,NW,314,7.0,10.0,73,0.00,,,0.00,0.000000,,2013-01-27 12:42:00,
2013-01-27 05:11:00,32.0,25.0,-100.00,NNE,18,5.0,9.0,76,0.00,,,0.00,0.000000,,2013-01-27 13:11:00,
2013-01-27 05:22:00,32.0,25.0,-100.00,NNE,18,5.0,9.0,76,0.00,,,0.00,0.000000,,2013-01-27 13:22:00,
2013-01-27 05:32:00,32.0,25.0,-100.00,NNE,18,5.0,9.0,76,0.00,,,0.00,0.000000,,2013-01-27 13:32:00,
2013-01-27 05:41:00,32.0,25.0,-100.00,NNE,18,5.0,9.0,76,0.00,,,0.00,0.000000,,2013-01-27 13:41:00,
2013-01-27 06:11:00,33.0,29.0,-100.00,North,7,5.0,9.0,85,0.00,,,0.00,0.000000,,2013-01-27 14:11:00,
2013-01-27 06:22:00,33.0,29.0,-100.00,North,7,5.0,9.0,85,0.00,,,0.00,0.000000,,2013-01-27 14:22:00,
2013-01-27 06:32:00,33.0,29.0,-100.00,North,7,5.0,9.0,85,0.00,,,0.00,0.000000,,2013-01-27 14:32:00,
2013-01-27 06:42:00,33.0,29.0,-100.00,North,7,5.0,9.0,85,0.00,,,0.00,0.000000,,2013-01-27 14:42:00,
2013-01-27 07:11:00,32.0,30.0,-100.00,WNW,299,2.0,8.0,91,0.00,,,0.00,0.000000,,2013-01-27 15:11:00,
2013-01-27 07:21:00,32.0,30.0,-100.00,WNW,299,2.0,8.0,91,0.00,,,0.00,0.000000,,2013-01-27 15:21:00,
2013-01-27 07:32:00,32.0,30.0,-100.00,WNW,299,2.0,8.0,91,0.00,,,0.00,0.000000,,2013-01-27 15:32:00,
2013-01-27 07:42:00,32.0,30.0,-100.00,WNW,299,2.0,8.0,91,0.00,,,0.00,0.000000,,2013-01-27 15:42:00,
2013-01-27 08:11:00,29.0,25.0,-100.00,NNW,334,5.0,10.0,84,0.00,,,0.00,7.000000,,2013-01-27 16:11:00,
2013-01-27 08:21:00,29.0,25.0,-100.00,NNW,334,5.0,10.0,84,0.00,,,0.00,7.000000,,2013-01-27 16:21:00,
2013-01-27 08:32:00,29.0,25.0,-100.00,NNW,334,5.0,10.0,84,0.00,,,0.00,7.000000,,2013-01-27 16:32:00,
2013-01-27 08:41:00,29.0,25.0,-100.00,NNW,334,5.0,10.0,84,0.00,,,0.00,7.000000,,2013-01-27 16:41:00,
2013-01-27 09:12:00,33.0,28.0,-100.00,WNW,288,9.0,13.0,80,0.00,,,0.00,144.000000,,2013-01-27 17:12:00,
2013-01-27 09:21:00,33.0,28.0,-100.00,WNW,288,9.0,13.0,80,0.00,,,0.00,144.000000,,2013-01-27 17:21:00,
2013-01-27 09:32:00,33.0,28.0,-100.00,WNW,288,9.0,13.0,80,0.00,,,0.00,144.000000,,2013-01-27 17:32:00,
2013-01-27 09:42:00,33.0,28.0,-100.00,WNW,288,9.0,13.0,80,0.00,,,0.00,144.000000,,2013-01-27 17:42:00,
2013-01-27 10:11:00,31.0,29.0,-100.00,NW,320,16.0,22.0,93,0.00,,,0.00,161.000000,,2013-01-27 18:11:00,
2013-01-27 10:22:00,31.0,29.0,-100.00,NW,320,16.0,22.0,93,0.00,,,0.00,161.000000,,2013-01-27 18:22:00,
2013-01-27 10:32:00,31.0,29.0,-100.00,NW,320,16.0,22.0,93,0.00,,,0.00,161.000000,,2013-01-27 18:32:00,
2013-01-27 10:41:00,31.0,29.0,-100.00,NW,320,16.0,22.0,93,0.00,,,0.00,161.000000,,2013-01-27 18:41:00,
2013-01-27 11:11:00,31.0,30.0,-100.00,NW,311,13.0,22.0,95,0.00,,,0.00,187.000000,,2013-01-27 19:11:00,
2013-01-27 11:22:00,31.0,30.0,-100.00,NW,311,13.0,22.0,95,0.00,,,0.00,187.000000,,2013-01-27 19:22:00,
2013-01-27 11:32:00,31.0,30.0,-100.00,NW,311,13.0,22.0,95,0.00,,,0.00,187.000000,,2013-01-27 19:32:00,
2013-01-27 11:41:00,31.0,30.0,-100.00,NW,311,13.0,22.0,95,0.00,,,0.00,187.000000,,2013-01-27 19:41:00,
2013-01-27 12:02:00,32.0,27.0,-100.00,NW,311,15.0,27.0,83,0.00,,,0.00,253.000000,,2013-01-27 20:02:00,
2013-01-27 12:11:00,32.0,27.0,-100.00,NW,311,15.0,27.0,83,0.00,,,0.00,253.000000,,2013-01-27 20:11:00,
2013-01-27 12:22:00,32.0,27.0,-100.00,NW,311,15.0,27.0,83,0.00,,,0.00,253.000000,,2013-01-27 20:22:00,
2013-01-27 12:32:00,32.0,27.0,-100.00,NW,311,15.0,27.0,83,0.00,,,0.00,253.000000,,2013-01-27 20:32:00,
2013-01-27 12:41:00,32.0,27.0,-100.00,NW,311,15.0,27.0,83,0.00,,,0.00,253.000000,,2013-01-27 20:41:00,
2013-01-27 13:12:00,34.0,24.0,-100.00,NW,320,14.0,23.0,67,0.00,,,0.00,285.000000,,2013-01-27 21:12:00,
2013-01-27 13:22:00,34.0,24.0,-100.00,NW,320,14.0,23.0,67,0.00,,,0.00,285.000000,,2013-01-27 21:22:00,
2013-01-27 13:32:00,34.0,24.0,-100.00,NW,320,14.0,23.0,67,0.00,,,0.00,285.000000,,2013-01-27 21:32:00,
2013-01-27 13:42:00,34.0,24.0,-100.00,NW,320,14.0,23.0,67,0.00,,,0.00,285.000000,,2013-01-27 21:42:00,
2013-01-27 14:11:00,35.0,23.0,-100.00,NW,322,13.0,21.0,60,0.01,,,0.01,452.000000,,2013-01-27 22:11:00,
2013-01-27 14:21:00,35.0,23.0,-100.00,NW,322,13.0,21.0,60,0.01,,,0.01,452.000000,,2013-01-27 22:21:00,
2013-01-27 14:32:00,35.0,23.0,-100.00,NW,322,13.0,21.0,60,0.01,,,0.01,452.000000,,2013-01-27 22:32:00,
2013-01-27 14:42:00,35.0,23.0,-100.00,NW,322,13.0,21.0,60,0.01,,,0.01,452.000000,,2013-01-27 22:42:00,
2013-01-27 15:02:00,35.0,22.0,-100.00,NNW,340,11.0,20.0,59,0.01,,,0.02,445.000000,,2013-01-27 23:02:00,
2013-01-27 15:11:00,35.0,22.0,-100.00,NNW,340,11.0,20.0,59,0.01,,,0.02,445.000000,,2013-01-27 23:11:00,
2013-01-27 15:21:00,35.0,22.0,-100.00,NNW,340,11.0,20.0,59,0.01,,,0.02,445.000000,,2013-01-27 23:21:00,
2013-01-27 15:32:00,35.0,22.0,-100.00,NNW,340,11.0,20.0,59,0.01,,,0.02,445.000000,,2013-01-27 23:32:00,
2013-01-27 15:41:00,35.0,22.0,-100.00,NNW,340,11.0,20.0,59,0.01,,,0.02,445.000000,,2013-01-27 23:41:00,
2013-01-27 16:01:00,35.0,20.0,-100.00,NNW,333,12.0,19.0,53,0.00,,,0.02,300.000000,,2013-01-28 00:01:00,
2013-01-27 16:11:00,35.0,20.0,-100.00,NNW,333,12.0,19.0,53,0.00,,,0.02,300.000000,,2013-01-28 00:11:00,
2013-01-27 16:21:00,35.0,20.0,-100.00,NNW,333,12.0,19.0,53,0.00,,,0.02,300.000000,,2013-01-28 00:21:00,
2013-01-27 16:32:00,35.0,20.0,-100.00,NNW,333,12.0,19.0,53,0.00,,,0.02,300.000000,,2013-01-28 00:32:00,
2013-01-27 16:41:00,35.0,20.0,-100.00,NNW,333,12.0,19.0,53,0.00,,,0.02,300.000000,,2013-01-28 00:41:00,
2013-01-27 17:11:00,32.0,16.0,-100.00,NNW,334,11.0,17.0,51,0.00,,,0.02,161.000000,,2013-01-28 01:11:00,
2013-01-27 17:21:00,32.0,16.0,-100.00,NNW,334,11.0,17.0,51,0.00,,,0.02,161.000000,,2013-01-28 01:21:00,
2013-01-27 17:32:00,32.0,16.0,-100.00,NNW,334,11.0,17.0,51,0.00,,,0.02,161.000000,,2013-01-28 01:32:00,
2013-01-27 17:42:00,32.0,16.0,-100.00,NNW,334,11.0,17.0,51,0.00,,,0.02,161.000000,,2013-01-28 01:42:00,
2013-01-27 18:11:00,30.0,18.0,-100.00,NNW,337,9.0,15.0,60,0.00,,,0.02,10.000000,,2013-01-28 02:11:00,
2013-01-27 18:21:00,30.0,18.0,-100.00,NNW,337,9.0,15.0,60,0.00,,,0.02,10.000000,,2013-01-28 02:21:00,
2013-01-27 18:32:00,30.0,18.0,-100.00,NNW,337,9.0,15.0,60,0.00,,,0.02,10.000000,,2013-01-28 02:32:00,
2013-01-27 18:41:00,30.0,18.0,-100.00,NNW,337,9.0,15.0,60,0.00,,,0.02,10.000000,,2013-01-28 02:41:00,
2013-01-27 19:11:00,29.0,17.0,-100.00,NW,320,8.0,18.0,61,0.00,,,0.02,0.000000,,2013-01-28 03:11:00,
2013-01-27 19:21:00,29.0,17.0,-100.00,NW,320,8.0,18.0,61,0.00,,,0.02,0.000000,,2013-01-28 03:21:00,
2013-01-27 19:32:00,29.0,17.0,-100.00,NW,320,8.0,18.0,61,0.00,,,0.02,0.000000,,2013-01-28 03:32:00,
2013-01-27 19:41:00,29.0,17.0,-100.00,NW,320,8.0,18.0,61,0.00,,,0.02,0.000000,,2013-01-28 03:41:00,
2013-01-27 20:11:00,26.0,16.0,-100.00,WNW,291,5.0,13.0,66,0.00,,,0.02,0.000000,,2013-01-28 04:11:00,
2013-01-27 20:21:00,26.0,16.0,-100.00,WNW,291,5.0,13.0,66,0.00,,,0.02,0.000000,,2013-01-28 04:21:00,
2013-01-27 20:32:00,26.0,16.0,-100.00,WNW,291,5.0,13.0,66,0.00,,,0.02,0.000000,,2013-01-28 04:32:00,
2013-01-27 20:41:00,26.0,16.0,-100.00,WNW,291,5.0,13.0,66,0.00,,,0.02,0.000000,,2013-01-28 04:41:00,
2013-01-27 21:11:00,23.0,15.0,-100.00,NW,309,1.0,8.0,71,0.00,,,0.02,0.000000,,2013-01-28 05:11:00,
2013-01-27 21:21:00,23.0,15.0,-100.00,NW,309,1.0,8.0,71,0.00,,,0.02,0.000000,,2013-01-28 05:21:00,
2013-01-27 21:31:00,23.0,15.0,-100.00,NW,309,1.0,8.0,71,0.00,,,0.02,0.000000,,2013-01-28 05:31:00,
2013-01-27 21:41:00,23.0,15.0,-100.00,NW,309,1.0,8.0,71,0.00,,,0.02,0.000000,,2013-01-28 05:41:00,
2013-01-27 22:11:00,24.0,16.0,-100.00,WNW,298,4.0,7.0,70,0.00,,,0.02,0.000000,,2013-01-28 06:11:00,
2013-01-27 22:21:00,24.0,16.0,-100.00,WNW,298,4.0,7.0,70,0.00,,,0.02,0.000000,,2013-01-28 06:21:00,
2013-01-27 22:32:00,24.0,16.0,-100.00,WNW,298,4.0,7.0,70,0.00,,,0.02,0.000000,,2013-01-28 06:32:00,
2013-01-27 22:42:00,24.0,16.0,-100.00,WNW,298,4.0,7.0,70,0.00,,,0.02,0.000000,,2013-01-28 06:42:00,
2013-01-27 23:11:00,22.0,13.0,-100.00,SW,227,6.0,8.0,69,0.00,,,0.02,0.000000,,2013-01-28 07:11:00,
2013-01-27 23:21:00,22.0,13.0,-100.00,SW,227,6.0,8.0,69,0.00,,,0.02,0.000000,,2013-01-28 07:21:00,
2013-01-27 23:31:00,22.0,13.0,-100.00,SW,227,6.0,8.0,69,0.00,,,0.02,0.000000,,2013-01-28 07:31:00,
2013-01-27 23:41:00,22.0,13.0,-100.00,SW,227,6.0,8.0,69,0.00,,,0.02,0.000000,,2013-01-28 07:41:00,